Regional Weather Roundup
Issued by NWS Bismarck, ND

Home | Current Version | Previous Version | Text Only | Print | Product List | Glossary On
Versions: 1 2 3 4 5 6 7 8 9 10 11 12 13 14 15 16 17 18 19 20 21 22 23 24 25 26 27 28 29 30 31 32 33 34 35 36 37 38 39 40 41 42 43 44 45 46 47 48 49 50
000
ASUS43 KBIS 280810
RWRBIS

NWR BROADCAST TEXT
NATIONAL WEATHER SERVICE BISMARCK ND
300 AM CDT FRI AUG 28 2015

NOTE: "FAIR" INDICATES FEW OR NO CLOUDS BELOW 12,000 FEET WITH NO
SIGNIFICANT WEATHER AND/OR OBSTRUCTIONS TO VISIBILITY.


CITY           SKY/WX    TMP DP  RH WIND       PRES   REMARKS
WILLISTON      CLEAR     65  62  90 S3        29.85S
MINOT          CLEAR     70  59  68 SW14      29.81F
MINOT AFB      CLEAR     68  65  89 SW13      29.79F
BISMARCK       CLEAR     66  61  84 SW5       29.91F
DICKINSON      MOCLDY    63  56  78 S12       29.90S
GARRISON         N/A     65  56  72 SW7       29.87S
HETTINGER ARPT MOCLDY    60  56  86 S3        29.96S
JAMESTOWN      PTCLDY    61  59  93 CALM      29.90S
CROSBY         FAIR      66  66 100 SW5       29.84S
HARVEY         FAIR      64  63  94 SW7       29.85F
HAZEN          FAIR      66  57  72 S15       29.87F
LINTON         FOG       55  55 100 E5        29.94S VSB 1
OAKES            N/A     63  63 100 S5        29.92S
RUGBY          FAIR      66  63  88 S12       29.82S
STANLEY        FAIR      63  63 100 SW3       29.86S
$$

CITY           SKY/WX    TMP DP  RH WIND       PRES   REMARKS
GRAND FORKS    CLEAR     64  63  96 S8        29.84F
GRAND FORKS AF CLEAR     65  64  97 SW8       29.85F
DEVILS LAKE    CLEAR     70  57  64 SW16      29.83F
FARGO          CLEAR     68  64  87 S9        29.89R
CAVALIER       FAIR      63  63 100 S6        29.82S
GRAFTON        FAIR      63  63 100 S8        29.84F
GWINNER          N/A     63  63 100 CALM      29.92S
LANGDON        FAIR      64  64 100 SW8       29.85S
ROLLA          CLOUDY    66  64  94 SW14      29.83S
WALHALLA       FAIR      63  63 100 MISG      29.82R
$$

CITY           SKY/WX    TMP DP  RH WIND       PRES   REMARKS
ABERDEEN       FOG       61  60  97 CALM      29.93S VSB 1/4
MOBRIDGE       PTCLDY    62  62 100 E5        29.91F
BUFFALO          N/A     61  57  87 S9        29.91F
RAPID CITY     CLEAR     58  56  93 CALM      29.98F
GLASGOW        CLEAR     66  53  63 NW5       29.87S
SIDNEY         PTCLDY    63  57  82 S10       29.85S
WOLF POINT     CLEAR     60  55  83 SW5       29.86R
GLENDIVE       PTCLDY    66  55  68 SW7       29.91S
MILES CITY     MOCLDY    70  46  42 W8        29.94R
BAKER          MOCLDY    61  56  83 CALM      29.95S
$$

CITY           SKY/WX    TMP DP  RH WIND       PRES   REMARKS
BILLINGS       PTCLDY    70  44  39 W18       30.06R
GREAT FALLS    CLOUDY    64  37  36 S12       30.03R HAZE
ESTEVAN        MOCLDY    64  61  88 SW9       29.82F
$$



USA.gov is the U.S. government's official web portal to all federal, state and local government web resources and services.